カタログに戻る

BREEZE-M DEB

TANK

運用中HEO
NORAD 36501·DEBRIS·🇷🇺 Russia

打ち上げ Mar 20, 2010 から Baikonur Cosmodrome

Loading…

次のパス (今後24時間)

TLE

最新Source: Space-Track

元期: Sep 14, 2026, 05:53 UTC

1 36501U 10010C   26257.24526996  .00001415  00000-0  24160-3 0  9999
2 36501  49.6608 106.8976 4780960 235.9957  69.2265  5.98037128348100

AllMySatでBREEZE-M DEBをリアルタイム追跡

Download on the App Store